VK4HIT-13 Weather Reports


time (UTC)temp
C
wind
direction
speed
KPH
gust
KPH
rain 1hr
cm
rain 24hr
cm
rain mn
cm
humidity
%
barometer
mb
20260503050435 25 26 8.0 19.3 0.00 0.03 0.00 54 1018.2
20260503045935 25 21 8.0 20.9 0.00 0.03 0.00 55 1018.2
20260503045435 25 13 6.4 22.5 0.00 0.03 0.00 55 1018.1
20260503044935 26 13 3.2 14.5 0.00 0.03 0.00 55 1018.2
20260503044435 25 20 3.2 11.3 0.00 0.03 0.00 55 1018.2
20260503043935 25 69 4.8 11.3 0.00 0.03 0.00 55 1018.3
20260503043435 25 61 4.8 16.1 0.00 0.03 0.00 56 1018.2
20260503042935 25 61 3.2 12.9 0.00 0.03 0.00 58 1018.3
20260503042435 24 33 1.6 8.0 0.00 0.03 0.00 60 1018.3
20260503041935 23 22 1.6 8.0 0.00 0.03 0.00 59 1018.3
20260503041435 23 14 3.2 6.4 0.00 0.03 0.00 59 1018.5
20260503040935 23 25 6.4 14.5 0.00 0.03 0.00 59 1018.5
20260503040435 24 26 11.3 19.3 0.00 0.03 0.00 58 1018.5
20260503035935 24 13 12.9 20.9 0.00 0.03 0.00 58 1018.6
20260503035435 25 19 12.9 24.1 0.00 0.03 0.00 56 1018.5
20260503034935 25 23 9.7 22.5 0.00 0.03 0.00 56 1018.6
20260503034435 25 27 9.7 22.5 0.00 0.03 0.00 58 1018.6
20260503033935 25 21 9.7 19.3 0.00 0.03 0.00 56 1018.6
20260503033435 25 26 6.4 14.5 0.00 0.03 0.00 56 1018.7
20260503032935 26 22 3.2 16.1 0.00 0.03 0.00 55 1018.8
20260503032435 25 72 4.8 11.3 0.00 0.03 0.00 57 1018.7
20260503031935 25 71 4.8 14.5 0.00 0.03 0.00 58 1018.9
20260503031435 25 63 4.8 12.9 0.00 0.03 0.00 58 1019.0
20260503030935 25 21 4.8 16.1 0.00 0.03 0.00 57 1019.0
20260503030435 25 14 3.2 8.0 0.00 0.03 0.00 59 1019.1
20260503025935 25 17 8.0 16.1 0.00 0.03 0.00 60 1019.2
20260503025435 25 24 8.0 19.3 0.00 0.03 0.00 59 1019.2
20260503024935 25 12 6.4 11.3 0.00 0.03 0.00 59 1019.2
20260503024435 25 19 6.4 14.5 0.00 0.03 0.00 60 1019.2
20260503023935 25 57 6.4 14.5 0.00 0.03 0.00 61 1019.3
20260503023435 25 17 6.4 17.7 0.00 0.03 0.00 60 1019.4
20260503022935 24 17 6.4 16.1 0.00 0.03 0.00 60 1019.5
20260503022435 23 67 6.4 19.3 0.00 0.03 0.00 60 1019.7
20260503021935 23 16 6.4 16.1 0.00 0.03 0.00 62 1019.8
20260503021435 23 26 8.0 17.7 0.00 0.03 0.00 63 1019.9
20260503020935 23 27 11.3 17.7 0.00 0.03 0.00 63 1020.0
20260503020435 23 19 9.7 22.5 0.00 0.03 0.00 65 1020.1
20260503015935 23 21 8.0 17.7 0.00 0.03 0.00 64 1020.1
20260503015435 23 18 9.7 17.7 0.00 0.03 0.00 65 1020.1
20260503014935 23 26 8.0 22.5 0.00 0.03 0.00 64 1020.3
20260503014435 23 22 6.4 12.9 0.00 0.03 0.00 64 1020.2
20260503013935 23 19 11.3 19.3 0.00 0.03 0.00 64 1020.3
20260503013435 23 24 9.7 24.1 0.00 0.03 0.00 64 1020.4
20260503012935 23 21 9.7 16.1 0.00 0.03 0.00 64 1020.4
20260503012435 23 24 9.7 19.3 0.00 0.03 0.00 64 1020.5
20260503011935 23 19 8.0 16.1 0.00 0.03 0.00 65 1020.6
20260503011435 23 25 8.0 22.5 0.00 0.03 0.00 66 1020.9
20260503010935 22 29 8.0 17.7 0.00 0.03 0.00 66 1021.0
20260503010435 23 23 8.0 19.3 0.00 0.03 0.00 66 1021.0
20260503005935 23 23 8.0 14.5 0.00 0.03 0.00 66 1021.2
20260503005435 23 26 9.7 19.3 0.00 0.03 0.00 67 1021.1
20260503004935 22 18 11.3 19.3 0.00 0.03 0.00 67 1021.2
20260503004435 22 17 12.9 17.7 0.00 0.03 0.00 67 1021.2
20260503003935 22 22 11.3 24.1 0.00 0.03 0.00 67 1021.3
20260503003435 22 28 11.3 19.3 0.00 0.03 0.00 69 1021.4
20260503002935 22 18 9.7 20.9 0.00 0.03 0.00 69 1021.3
20260503002435 22 18 6.4 9.7 0.00 0.03 0.00 69 1021.5
20260503001935 22 19 9.7 17.7 0.00 0.03 0.00 70 1021.7
20260503001435 22 28 8.0 19.3 0.00 0.03 0.00 71 1021.7
20260503000935 22 24 6.4 16.1 0.00 0.03 0.00 72 1021.7
20260503000437 22 0 6.4 14.5 0.00 0.03 0.00 72 1021.6
20260502235935 21 28 4.8 14.5 0.00 0.03 0.00 72 1021.8
20260502235435 21 28 4.8 12.9 0.00 0.03 0.00 73 1021.8
20260502234935 21 27 6.4 16.1 0.00 0.03 0.00 73 1021.8
20260502234435 21 28 8.0 9.7 0.00 0.03 0.00 73 1021.8
20260502233935 21 33 8.0 17.7 0.00 0.03 0.00 73 1021.7
20260502233435 21 0 6.4 14.5 0.00 0.03 0.00 75 1021.7
20260502232935 20 30 4.8 17.7 0.00 0.03 0.00 75 1021.8
20260502232435 20 33 6.4 16.1 0.00 0.03 0.00 75 1021.9
20260502231935 20 22 6.4 12.9 0.00 0.03 0.00 75 1021.8
20260502231435 20 0 8.0 16.1 0.00 0.03 0.00 76 1022.0
20260502230935 20 26 11.3 16.1 0.00 0.03 0.00 75 1022.0
20260502230435 20 25 9.7 17.7 0.00 0.03 0.00 76 1022.1
20260502225935 20 33 8.0 17.7 0.00 0.03 0.00 75 1022.1
20260502225435 20 24 8.0 14.5 0.00 0.03 0.00 75 1022.2
20260502224935 20 28 8.0 17.7 0.00 0.03 0.00 75 1022.2
20260502224435 20 24 6.4 11.3 0.00 0.03 0.00 76 1022.1
20260502223935 20 24 9.7 14.5 0.00 0.03 0.00 76 1022.1
20260502223435 19 28 9.7 19.3 0.00 0.03 0.00 76 1022.0
20260502222935 19 18 8.0 17.7 0.00 0.03 0.00 76 1022.0
20260502222435 19 25 6.4 14.5 0.00 0.03 0.00 77 1021.9
20260502221935 18 26 6.4 9.7 0.00 0.03 0.00 78 1021.9
20260502221435 18 36 8.0 12.9 0.00 0.05 0.00 77 1021.9
20260502220935 18 32 8.0 16.1 0.00 0.05 0.00 78 1021.9
20260502220435 18 24 9.7 17.7 0.00 0.05 0.00 78 1021.8
20260502215935 18 30 9.7 16.1 0.00 0.05 0.00 78 1021.7
20260502215435 18 30 8.0 19.3 0.00 0.05 0.00 79 1021.7
20260502214935 18 28 8.0 17.7 0.00 0.05 0.00 79 1021.6
20260502214435 18 30 8.0 14.5 0.00 0.05 0.00 80 1021.5
20260502213935 18 26 8.0 14.5 0.00 0.05 0.00 80 1021.3
20260502213435 18 30 9.7 14.5 0.00 0.05 0.00 80 1021.6
20260502212935 17 29 9.7 17.7 0.00 0.05 0.00 80 1021.5
20260502212435 17 31 9.7 16.1 0.00 0.05 0.00 81 1021.5
20260502211935 17 30 8.0 14.5 0.00 0.05 0.00 81 1021.4
20260502211435 17 32 8.0 17.7 0.00 0.05 0.00 81 1021.2
20260502210935 17 30 9.7 16.1 0.00 0.05 0.00 81 1021.1
20260502210435 17 26 9.7 16.1 0.00 0.05 0.00 82 1021.1
20260502205935 17 30 9.7 14.5 0.00 0.05 0.00 82 1021.3
20260502205435 17 29 9.7 16.1 0.00 0.05 0.00 82 1021.2
20260502204935 17 26 9.7 14.5 0.00 0.05 0.00 82 1021.0
20260502204435 17 24 8.0 14.5 0.00 0.05 0.00 82 1021.0
20260502203935 17 29 8.0 14.5 0.00 0.05 0.00 82 1021.0
20260502203435 17 27 9.7 14.5 0.00 0.05 0.00 82 1021.0
20260502202935 17 26 11.3 19.3 0.00 0.05 0.00 82 1020.8
20260502202435 17 26 12.9 17.7 0.00 0.05 0.00 82 1020.7
20260502201935 17 30 12.9 24.1 0.00 0.05 0.00 81 1020.7
20260502201435 17 26 11.3 17.7 0.00 0.05 0.00 81 1020.7
20260502200935 17 24 12.9 17.7 0.00 0.05 0.00 81 1020.7
20260502200435 17 24 12.9 19.3 0.00 0.05 0.00 82 1020.6
20260502195935 17 32 11.3 17.7 0.00 0.05 0.00 82 1020.7
20260502195435 17 28 9.7 14.5 0.00 0.05 0.00 83 1020.7
20260502194935 17 28 8.0 14.5 0.00 0.05 0.00 83 1020.7
20260502194435 17 28 9.7 16.1 0.00 0.05 0.00 82 1020.7
20260502193935 17 29 12.9 17.7 0.00 0.05 0.00 82 1020.5
20260502193435 17 25 12.9 22.5 0.00 0.05 0.00 82 1020.5
20260502192935 17 26 11.3 17.7 0.00 0.05 0.00 82 1020.4
20260502192435 17 27 11.3 19.3 0.00 0.05 0.00 82 1020.2
20260502191935 17 22 9.7 16.1 0.00 0.05 0.00 82 1020.3
20260502191435 17 22 6.4 12.9 0.00 0.05 0.00 82 1020.4
20260502190935 17 23 4.8 12.9 0.00 0.05 0.00 82 1020.5
20260502190435 17 19 4.8 12.9 0.00 0.05 0.00 83 1020.6
20260502185935 17 26 4.8 6.4 0.00 0.05 0.00 83 1020.6
20260502185436 17 28 4.8 9.7 0.00 0.05 0.00 83 1020.4
20260502184935 17 22 4.8 8.0 0.00 0.05 0.00 83 1020.4
20260502184435 17 26 4.8 9.7 0.00 0.05 0.00 83 1020.5
20260502183935 17 24 6.4 9.7 0.00 0.05 0.00 84 1020.3
20260502183435 17 26 6.4 9.7 0.00 0.05 0.00 84 1020.3
20260502182935 17 24 6.4 12.9 0.00 0.05 0.00 84 1020.3
20260502182435 17 24 6.4 12.9 0.00 0.05 0.00 83 1020.3
20260502181935 17 26 6.4 9.7 0.00 0.05 0.00 84 1020.3
20260502181435 17 25 6.4 11.3 0.00 0.05 0.00 84 1020.2
20260502180935 17 22 4.8 12.9 0.00 0.05 0.00 84 1020.2
20260502180435 17 27 4.8 9.7 0.00 0.05 0.00 84 1020.4
20260502170436 17 26 8.0 14.5 0.00 0.05 0.00 85 1020.5
20260502163936 17 26 9.7 16.1 0.00 0.05 0.00 86 1020.7
20260502163436 17 24 9.7 16.1 0.00 0.05 0.00 86 1020.8
20260502162936 17 17 8.0 16.1 0.00 0.05 0.00 87 1020.9
20260502162436 17 23 8.0 16.1 0.00 0.05 0.00 87 1020.9
20260502161936 17 26 9.7 14.5 0.00 0.05 0.00 87 1020.8
20260502161436 17 26 9.7 16.1 0.00 0.05 0.00 87 1020.8
20260502160936 17 25 9.7 14.5 0.00 0.05 0.00 87 1020.9
20260502160436 17 24 11.3 17.7 0.00 0.05 0.00 86 1020.7
20260502151936 17 22 9.7 14.5 0.00 0.05 0.00 87 1021.1
20260502151436 18 26 9.7 14.5 0.00 0.05 0.00 87 1021.2
20260502150936 18 24 11.3 17.7 0.00 0.05 0.00 87 1021.2
20260502150436 18 22 11.3 16.1 0.00 0.05 0.00 87 1021.2
20260502130436 18 29 8.0 16.1 0.00 0.15 0.10 88 1021.5
20260502123436 18 28 6.4 12.9 0.00 0.15 0.10 88 1021.6
20260502122936 18 30 6.4 12.9 0.00 0.15 0.10 88 1021.7
20260502122436 19 31 6.4 12.9 0.00 0.15 0.10 88 1021.8
20260502121936 19 29 6.4 11.3 0.00 0.15 0.10 88 1021.7
20260502121436 19 25 4.8 9.7 0.00 0.15 0.10 88 1021.7
20260502120936 19 25 4.8 9.7 0.00 0.15 0.10 89 1021.7
20260502120436 19 26 4.8 6.4 0.00 0.15 0.10 88 1021.7
20260502115436 19 27 4.8 8.0 0.00 0.15 0.10 89 1021.8
20260502114936 19 24 4.8 9.7 0.00 0.15 0.10 89 1021.9
20260502114436 19 22 6.4 6.4 0.00 0.15 0.10 89 1022.0
20260502113936 19 29 4.8 12.9 0.00 0.15 0.10 89 1022.0
20260502113436 19 31 3.2 6.4 0.00 0.15 0.10 89 1021.9
20260502112936 19 26 3.2 8.0 0.00 0.15 0.10 89 1021.9
20260502112436 19 24 3.2 9.7 0.00 0.15 0.10 90 1021.8
20260502111936 19 27 3.2 4.8 0.00 0.15 0.10 90 1021.8
20260502111436 19 23 1.6 4.8 0.03 0.25 0.10 90 1021.8
20260502110936 19 21 3.2 4.8 0.03 0.25 0.10 90 1021.7
20260502110436 19 28 3.2 6.4 0.03 0.25 0.10 90 1021.6
20260502105936 19 24 3.2 8.0 0.03 0.25 0.10 90 1021.6
20260502105436 19 31 3.2 8.0 0.03 0.25 0.10 89 1021.6
20260502104936 19 21 1.6 6.4 0.03 0.25 0.10 89 1021.7
20260502104436 19 40 3.2 8.0 0.03 0.25 0.10 88 1021.7
20260502103936 19 26 8.0 16.1 0.03 0.25 0.10 88 1021.8
20260502103436 19 26 9.7 17.7 0.03 0.25 0.10 88 1021.7
20260502102936 19 19 9.7 20.9 0.03 0.25 0.10 87 1021.6
20260502102436 19 28 8.0 14.5 0.03 0.25 0.10 87 1021.6
20260502101936 20 22 6.4 14.5 0.03 0.25 0.10 87 1021.7
20260502101436 20 23 4.8 9.7 0.00 0.23 0.08 86 1021.7
20260502100936 20 32 4.8 8.0 0.00 0.23 0.08 86 1021.6
20260502100436 20 21 4.8 9.7 0.00 0.23 0.08 86 1021.6
20260502091436 20 27 6.4 14.5 0.00 0.23 0.08 85 1021.2
20260502090936 20 28 6.4 16.1 0.00 0.23 0.08 85 1021.0
20260502090436 20 16 8.0 16.1 0.00 0.23 0.08 85 1020.9
20260502071436 21 29 8.0 16.1 0.00 0.23 0.08 78 1020.5
20260502070936 21 26 6.4 12.9 0.00 0.23 0.08 78 1020.4
20260502070436 21 26 8.0 14.5 0.00 0.23 0.08 77 1020.2
20260502065936 21 22 9.7 17.7 0.00 0.23 0.08 77 1020.0
20260502065436 21 23 11.3 24.1 0.00 0.23 0.08 75 1020.1
20260502064936 21 19 12.9 24.1 0.00 0.23 0.08 76 1019.9
20260502064436 21 22 11.3 22.5 0.00 0.23 0.08 74 1019.9
20260502063936 22 24 9.7 22.5 0.00 0.23 0.08 73 1019.9
20260502063436 22 22 9.7 17.7 0.00 0.23 0.08 73 1020.0
20260502062936 22 15 9.7 17.7 0.00 0.23 0.08 72 1019.9
20260502062436 22 22 11.3 19.3 0.00 0.23 0.08 71 1019.8
20260502061936 22 22 11.3 25.7 0.00 0.23 0.08 70 1019.9
20260502061436 22 17 11.3 24.1 0.00 0.23 0.08 69 1019.9
20260502060936 22 23 11.3 25.7 0.00 0.23 0.08 68 1019.7
20260502060436 22 23 14.5 22.5 0.00 0.23 0.08 67 1019.7
20260502055936 22 24 16.1 29.0 0.00 0.23 0.08 67 1019.8
20260502055437 22 17 16.1 35.4 0.00 0.23 0.08 66 1019.8
20260502054936 23 22 17.7 32.2 0.00 0.23 0.08 65 1019.7
20260502054437 23 26 17.7 32.2 0.00 0.23 0.08 64 1019.7
20260502053937 23 27 14.5 29.0 0.00 0.23 0.08 65 1019.7
20260502053436 23 23 11.3 19.3 0.00 0.23 0.08 68 1019.7
20260502052937 22 22 9.7 25.7 0.00 0.23 0.08 70 1019.8
20260502052437 22 24 8.0 22.5 0.00 0.23 0.08 72 1019.6
20260502051937 22 27 9.7 20.9 0.00 0.23 0.08 72 1019.5
20260502051437 22 29 16.1 29.0 0.00 0.23 0.08 72 1019.5
20260502050937 23 15 14.5 30.6 0.00 0.23 0.08 68 1019.6